Weather Roundup
Issued by NWS Chicago, IL

Home | Current Version | Previous Version | Graphics & Text | Print | Product List | Glossary On
Versions: 1 2 3 4 5 6 7 8 9 10 11 12 13 14 15 16 17 18 19 20 21 22 23 24 25 26 27 28 29 30 31 32 33 34 35 36 37 38 39 40 41 42 43 44 45 46 47 48 49 50
000
NZUS59 KLOT 211508
HRRLOT

CHICAGO AREA WEATHER ROUNDUP
NATIONAL WEATHER SERVICE CHICAGO/ROMEOVILLE IL
900 AM CST TUE NOV 21 2017

NOTE: "FAIR" INDICATES FEW OR NO CLOUDS BELOW 12,000 FEET WITH NO
SIGNIFICANT WEATHER AND/OR OBSTRUCTIONS TO VISIBILITY.

* THESE STATIONS ARE NOT UNDER NWS QUALITY CONTROL. THEY ALSO MAY NOT
  REPORT WEATHER SUCH AS PRECIPITATION OR FOG.

ILZ005-006-012>014-019>023-211600-
NORTHEAST ILLINOIS

CITY           SKY/WX    TMP DP  RH WIND       PRES   REMARKS
OHARE          LGT RAIN  44  32  62 W14       29.74R
MIDWAY         CLOUDY    44  33  65 W14G24    29.75R
AURORA         LGT RAIN  41  35  79 W14       29.78R
LANSING*       CLOUDY    41  35  76 SW15      29.77R
JOLIET*        CLOUDY    44  35  68 SW9       29.79R
WAUKEGAN       CLOUDY    45  32  60 W8        29.71R
DUPAGE AIRPORT LGT RAIN  41  34  76 SW13      29.76R
WHEELING       CLOUDY    45  33  63 W13       29.75R
KANKAKEE*      CLOUDY    41  33  73 SW14      29.81R
MORRIS*        CLOUDY    42  33  71 W10       29.78R
LEWIS AIRPORT* CLOUDY    43  34  71 SW16      29.77R
NORTHERLY ISL    N/A     44  31  60 W9          N/A
$$

WIZ051-052-058>065-066-070>072-211600-
SOUTHEAST WISCONSIN

CITY           SKY/WX    TMP DP  RH WIND       PRES   REMARKS
MILWAUKEE      PTSUNNY   46  27  47 W12       29.69R
KENOSHA*       CLOUDY    44  31  60 W14       29.70R
RACINE*        CLOUDY    45  30  55 W14G24    29.70R
BURLINGTON     CLOUDY    45  31  58 W8G18     29.72R
WAUKESHA       CLOUDY    41  19  42 W17G29    29.70R
WEST BEND      PTSUNNY   39  16  38 W17G25    29.68R
$$

INZ001>003-010>013-019-020-211600-
NORTHWEST INDIANA

CITY           SKY/WX    TMP DP  RH WIND       PRES   REMARKS
GARY*          PTSUNNY   43  30  61 SW14G29   29.77R
MICHIGAN CITY* NOT AVBL
RENSSELAER*    NOT AVBL
VALPARAISO     CLOUDY    44  33  65 SW17      29.78R
$$

LMZ740>746-211600-
SOUTHERN LAKE MICHIGAN

STATION/POSITION TIME  SKY/WX   TEMP WIND        PRES    VSBY
                                AIR  DIR/SP/G
                 (UTC)          (F)  (DEG/KT/KT) (MB)    (MI)
HARRISON CRIB    1440            45  250/ 21/ 23   N/A
BURNHAM HARBOR   1500            44  200/ 11/ 15   N/A
CALUMET HARBOR   1442            43  210/ 10/ 19 1006.7R
BURNS HARBOR     1440            43  220/ 15/ 23 1008.1R
MICHIGAN CITY    1440            43  200/ 17/ 20   N/A
$$

ABBREVIATIONS USED IN REMARKS
   TC - TEMPERATURE IN CELSIUS
  WCI - WIND CHILL INDEX
   HX - HEAT INDEX
  VSB - VISIBILITY
$$




USA.gov is the U.S. government's official web portal to all federal, state and local government web resources and services.